Nashua, NH

5:49 AM EST on January 22, 2018 (GMT -0500)
Boire

Weather History for KASH - December, 2012

Change the Weather History Date:

Friday, December 28, 2012

  Actual Average Record
Temperature  
Mean Temperature 30 °F -  
Max Temperature 34 °F 34 °F 63 °F (1982)
Min Temperature 23 °F 14 °F -20 °F (1951)
Degree Days  
Heating Degree Days 36    
Moisture  
Dew Point 20 °F    
Average Humidity 72    
Maximum Humidity 89    
Minimum Humidity 62    
Precipitation  
Precipitation 0.00 in - - ()
Sea Level Pressure  
Sea Level Pressure 29.84 in    
Wind  
Wind Speed 17 mph (NW)    
Max Wind Speed 34 mph    
Max Gust Speed 61 mph    
Visibility 10 miles    
Events Snow    
Averages and records for this station are not official NWS values.
T = Trace of Precipitation, MM = Missing Value Source: NWS Daily Summary

Daily Weather History Graph

Daily Weather History Graph

Search for Another Location

Airport or City:

Trip Planner

Search our weather history database for the weather conditions in past years. The results will help you decide how hot, cold, wet, or windy it might be!

Date:

Astronomy

Dec. 28, 2012 Rise Set
Actual Time 7:16 AM EST 4:19 PM EST
Civil Twilight 6:43 AM EST 4:51 PM EST
Nautical Twilight 6:08 AM EST 5:27 PM EST
Astronomical Twilight 5:33 AM EST 6:02 PM EST
Moon 4:55 PM EST (12/28) 7:07 AM EST (12/28)
Length of Visible Light 10h 08m
Length of Day
9h 03m
Full, 100% of the Moon is Illuminated
Dec 28
Full
Jan 4
Last Quarter
Jan 11
New
Jan 18
First Quarter
Jan 26
Full

Hourly Weather History & Observations

Time (EST) Temp. Windchill Dew Point Humidity Pressure Visibility Wind Dir Wind Speed Gust Speed Precip Events Conditions
12:02 AM 30.2 °F 17.8 °F 23.0 °F 75% 29.64 in 10.0 mi NW 19.6 mph 46.0 mph 0.00 in Snow Light Snow
12:16 AM 28.4 °F 11.8 °F 23.0 °F 80% 29.64 in 10.0 mi NW 34.5 mph 50.6 mph 0.00 in Snow Light Snow
12:31 AM 28.4 °F 16.6 °F 21.2 °F 74% 29.65 in 10.0 mi NW 16.1 mph 48.3 mph 0.00 in Snow Light Snow
12:51 AM 29.1 °F 17.1 °F 22.1 °F 75% 29.67 in 10.0 mi NW 17.3 mph 43.7 mph 0.00 in Snow Light Snow
1:02 AM 28.4 °F 15.4 °F 21.2 °F 74% 29.67 in 10.0 mi NW 19.6 mph 51.8 mph 0.00 in Snow Light Snow
1:15 AM 28.4 °F 12.7 °F 21.2 °F 74% 29.67 in 10.0 mi NW 29.9 mph 44.9 mph 0.00 in Snow Light Snow
1:29 AM 28.4 °F 15.4 °F 21.2 °F 74% 29.68 in 10.0 mi NNW 19.6 mph 44.9 mph 0.00 in Snow Light Snow
1:51 AM 28.0 °F 17.0 °F 21.0 °F 75% 29.73 in 10.0 mi NW 13.8 mph 43.7 mph 0.00 in Snow Light Snow
2:01 AM 28.4 °F 14.1 °F 21.2 °F 74% 29.71 in 10.0 mi NW 24.2 mph 46.0 mph 0.00 in Snow Light Snow
2:21 AM 28.4 °F 13.3 °F 21.2 °F 74% 29.72 in 10.0 mi NW 27.6 mph 46.0 mph 0.00 in Snow Light Snow
2:51 AM 28.0 °F 19.3 °F 21.0 °F 75% 29.75 in 10.0 mi NW 9.2 mph - 0.00 in Snow Light Snow
3:51 AM 27.1 °F 18.2 °F 19.0 °F 72% 29.78 in 10.0 mi NW 9.2 mph 48.3 mph 0.00 in Snow Light Snow
4:15 AM 26.6 °F 16.2 °F 19.4 °F 74% 29.77 in 10.0 mi NW 11.5 mph 29.9 mph 0.00 in Snow Light Snow
4:23 AM 26.6 °F 14.7 °F 17.6 °F 69% 29.77 in 10.0 mi NNW 15.0 mph 38.0 mph 0.00 in Snow Light Snow
4:51 AM 27.1 °F 12.1 °F 18.1 °F 69% 29.81 in 10.0 mi NW 25.3 mph 40.3 mph 0.00 in Snow Light Snow
5:04 AM 26.6 °F 12.7 °F 17.6 °F 69% 29.79 in 10.0 mi NNW 20.7 mph 61.0 mph 0.00 in Snow Light Snow
5:14 AM 26.6 °F 15.2 °F 17.6 °F 69% 29.80 in 10.0 mi NW 13.8 mph 50.6 mph 0.00 in Snow Light Snow
5:51 AM 26.1 °F 11.3 °F 17.1 °F 69% 29.83 in 10.0 mi NW 23.0 mph 35.7 mph 0.00 in Snow Light Snow
6:51 AM 26.1 °F 15.6 °F 17.1 °F 69% 29.84 in 10.0 mi NNW 11.5 mph 35.7 mph 0.00 in Snow Light Snow
7:51 AM 27.1 °F 14.9 °F 16.2 °F 63% 29.88 in 10.0 mi NW 16.1 mph 29.9 mph 0.00 in Snow Light Snow
8:51 AM 28.0 °F 20.8 °F 18.1 °F 66% 29.91 in 10.0 mi NW 6.9 mph - 0.00 in   Clear
9:51 AM 31.1 °F 21.4 °F 20.1 °F 64% 29.93 in 10.0 mi NW 12.7 mph - N/A   Clear
10:51 AM 32.0 °F 19.8 °F 20.1 °F 62% 29.92 in 10.0 mi NNW 20.7 mph - N/A   Clear
11:51 AM 32.9 °F 21.6 °F 21.0 °F 62% 29.92 in 10.0 mi NNW 18.4 mph - N/A   Clear
12:51 PM 32.9 °F 22.4 °F 22.1 °F 65% 29.92 in 10.0 mi NW 16.1 mph 40.3 mph N/A   Mostly Cloudy
1:51 PM 34.0 °F 24.2 °F 23.0 °F 64% 29.93 in 10.0 mi NNW 15.0 mph - N/A   Scattered Clouds
2:51 PM 34.0 °F 26.6 °F 22.1 °F 62% 29.95 in 10.0 mi NW 9.2 mph - N/A   Clear
3:51 PM 32.0 °F 23.6 °F 21.0 °F 64% 29.95 in 10.0 mi NW 10.4 mph - N/A   Clear
4:51 PM 31.1 °F - 21.0 °F 66% 29.97 in 10.0 mi Calm Calm - N/A   Clear
5:51 PM 27.1 °F - 21.0 °F 78% 30.00 in 10.0 mi Calm Calm - N/A   Clear
6:51 PM 26.1 °F - 21.0 °F 81% 30.01 in 10.0 mi Calm Calm - N/A   Clear
7:51 PM 25.2 °F - 20.1 °F 81% 30.01 in 10.0 mi Calm Calm - N/A   Clear
8:51 PM 25.2 °F - 21.0 °F 84% 30.01 in 10.0 mi Calm Calm - N/A   Clear
9:51 PM 28.0 °F - 22.1 °F 78% 30.01 in 10.0 mi Calm Calm - N/A   Mostly Cloudy
11:51 PM 23.0 °F - 20.1 °F 89% 30.02 in 10.0 mi Calm Calm - N/A   Clear